ONEWEB-0246 (48786 NORAD) Tracking and Keplerian Element Data

This shows tracking and keplerian element data for the satellite.

Feedback or suggestion? Click here.




ElementValue
Catalog48786
NameONEWEB-0246
Epoch Orbit1062
Epoch Day210.91668981
Epoch Year2021
RAAN255.8809
Inclination87.5105
Eccentricity0.0009849
Argument of Perigee72.3084
Mean Anonmoly75.2336
Mean Motion14.36853822
Decay Rate-0.01399366
L11 48786U 21045V 21210.91668981 -.01399366 00000-0 -50647+0 0 9999
L22 48786 87.5105 255.8809 0009849 72.3084 75.2336 14.36853822 10629

Live tracking and technical data element details for ONEWEB-0246 (NORAD 48786). ONEWEB-0246 can be tracked NOW for your location showing map with azimuth and elevation plus other details from your city location.

Track the satellite on the map from your city or location and see movement details for azimuth, elevation, latitude, longitude, range, height, and movement on the map or in text.







IsCatalogInMostPopularTable: catalog: 48786, numindb: 19
Update: records affected: 1



GetName: 48786 ONEWEB-0246

Hit Count: updated at: Sat, 31 Jul 2021 15:37:53 GMT